#timestamp,LO_Frequency,Hit,StdDev 
1642676415.4,286047006.4,N
1642676435.2,286047006.7,N
1642676455.1,286047007.0,N
1642676456.0,286047007.0,N
1642676475.8,286047001.3,N
1642676495.6,286047003.5,N
1642676515.5,286047008.7,N
1642676535.3,286047012.3,Y
1642676555.2,286047004.1,P
1642676575.9,286047001.4,N
1642676595.7,286047004.6,N
1642676615.6,286047003.0,N
1642676635.4,286047002.7,N
1642676655.3,286047000.7,N
1642676675.1,286047000.5,N
1642676676.0,286047000.5,N
1642676695.8,286046998.4,N
1642676715.7,286046996.7,N
1642676735.5,286046997.2,N
1642676755.3,286046998.0,N
1642676775.2,286046994.9,N
1642676795.0,286046997.5,N
1642676795.9,286046997.5,N
1642676815.8,286046995.4,N
1642676835.6,286046993.8,N
1642676855.4,286046995.7,N
1642676875.3,286046995.0,N
1642676895.1,286046995.1,N
1642676915.9,286046995.9,N
1642676935.7,286046995.9,N
1642676955.5,286046993.8,N
1642676975.4,286046995.9,N
1642676995.2,286046996.4,N
1642677015.0,286046995.2,N
1642677015.9,286046995.2,N
1642677035.8,286046997.9,N
1642677055.6,286046995.3,N
1642677075.5,286046994.9,N
1642677095.3,286046995.9,N
1642677115.1,286046995.4,N
1642677135.9,286046997.7,N
1642677155.7,286046995.7,N
1642677175.5,286046996.3,N
1642677195.4,286046998.0,N
1642677215.2,286046993.4,Y
1642677235.1,286046996.9,P
1642677236.0,286046996.9,P
1642677255.8,286046999.6,N
1642677275.6,286046998.7,N
1642677295.5,286046998.9,N
1642677315.3,286046998.7,N
1642677335.1,286046999.1,N
1642677355.9,286046999.4,N
1642677375.7,286046999.5,N
1642677395.6,286046999.3,N
1642677415.4,286046999.1,N
1642677435.2,286046999.2,N
1642677455.1,286046999.0,N
1642677456.0,286046999.0,N
1642677475.8,286046997.2,N
1642677495.6,286046997.5,N
1642677515.5,286046999.6,N
1642677535.3,286046996.6,Y
1642677555.2,286047000.7,P
1642677575.9,286047007.8,P
1642677595.7,286047009.8,N
1642677615.6,286047010.3,N
1642677635.4,286047009.0,N
1642677655.2,286047006.5,N
1642677675.1,286047004.5,N
1642677676.0,286047004.5,N
1642677695.8,286047005.2,N
1642677715.7,286047003.3,N
1642677735.5,286047000.4,N
1642677755.3,286046998.2,N
1642677775.2,286046999.0,N
1642677795.0,286046996.5,N
1642677795.9,286046996.5,N
1642677815.8,286046999.0,N
1642677835.6,286046998.8,N
1642677855.4,286046996.6,N
1642677875.3,286046996.5,N
1642677895.1,286046999.4,N
1642677915.8,286046999.0,N
1642677935.7,286047002.8,N
1642677955.5,286047007.5,N
1642677975.4,286047007.6,N
1642677995.2,286047004.8,N
1642678015.0,286047003.3,N
1642678015.9,286047003.3,N
1642678035.8,286047005.8,N
1642678055.6,286047005.3,N
1642678075.4,286047002.8,N
1642678095.3,286047000.4,N
1642678115.1,286047000.9,N
1642678135.9,286047002.8,N
1642678155.7,286047000.2,N
1642678175.5,286047000.4,N
1642678195.4,286047000.6,N
1642678215.2,286046999.8,N
1642678235.0,286047000.7,N
1642678235.9,286047000.7,N
1642678255.8,286047000.7,N
1642678275.6,286047000.7,N
1642678295.5,286046999.7,N
1642678315.3,286047002.4,N
1642678335.1,286047001.5,N
1642678355.9,286047002.7,N
1642678375.7,286047000.1,N
1642678395.5,286047000.6,N
1642678415.4,286047000.4,N
1642678435.2,286046999.7,N
1642678455.0,286047000.6,N
1642678456.0,286047000.6,N
1642678475.8,286047000.8,N
1642678495.6,286047000.4,N
1642678515.5,286047000.7,N
1642678535.3,286046998.7,N
1642678555.1,286046998.1,N
1642678575.9,286047000.9,N
1642678595.7,286047000.6,N
1642678615.6,286046998.6,N
1642678635.4,286046998.1,N
1642678655.2,286047000.3,N
1642678675.1,286047002.7,N
1642678676.0,286047002.7,N
1642678695.8,286047001.4,N
1642678715.7,286047004.3,Y
1642678735.5,286047002.0,P
1642678755.3,286047002.6,P
1642678775.2,286047000.1,N
1642678795.0,286047000.0,N
1642678795.9,286047000.0,N
1642678815.8,286047002.2,N
1642678835.6,286047001.9,N
1642678855.4,286047000.4,N
1642678875.3,286046999.9,N
1642678895.1,286046998.2,N
1642678915.8,286047001.1,N
1642678935.7,286046999.3,N
1642678955.5,286046998.3,N
1642678975.4,286047000.5,N
1642678995.2,286047000.4,N
1642679015.0,286047000.8,N
1642679015.9,286047000.8,N
1642679035.8,286047000.5,N
1642679055.6,286046998.7,N
1642679075.4,286047001.1,N
1642679095.3,286046998.5,N
1642679115.1,286047000.8,N
1642679135.9,286047000.0,N
1642679155.7,286046998.1,N
1642679175.5,286046998.7,N
1642679195.4,286046998.7,N
1642679215.2,286046998.2,N
1642679235.0,286047000.8,N
1642679235.9,286047000.8,N
1642679255.8,286047001.2,N
1642679275.6,286047001.1,N
1642679295.5,286047001.1,N
1642679315.3,286046998.4,N
1642679335.1,286046997.9,N
1642679355.9,286046995.0,Y
1642679375.7,286046997.7,P
1642679395.5,286046996.9,N
1642679415.4,286046996.7,N
1642679435.2,286046996.8,N
1642679455.1,286046995.0,Y
1642679456.0,286046995.0,P
1642679475.8,286046998.3,N
1642679495.6,286047002.2,N
1642679515.5,286047002.7,N
1642679535.3,286047002.7,N
1642679555.2,286047002.3,N
1642679575.9,286047001.8,N
1642679595.7,286047003.4,N
1642679615.6,286047003.0,N
1642679635.4,286047003.5,N
1642679655.2,286047003.8,N
1642679675.1,286047003.3,N
1642679676.0,286047003.3,N
1642679695.8,286047003.1,N
1642679715.7,286047005.2,N
1642679735.5,286047005.7,N
1642679755.3,286047005.2,N
1642679775.2,286047003.0,N
1642679795.0,286047005.6,N
1642679795.9,286047005.6,N
1642679815.7,286047003.5,N
1642679835.6,286047003.2,N
1642679855.4,286047003.6,N
1642679875.3,286047003.6,N
1642679895.1,286047004.1,N
1642679915.8,286047003.5,N
1642679935.7,286047004.1,N
1642679955.5,286047004.2,N
1642679975.3,286047003.5,N
1642679995.2,286047003.1,N
